sat.trackr.live / text

‹ back to catalog

STARLINK-36163

NORAD 67008 · 2025-293F

PAYLOAD ACTIVE UNKNOWN

§ Identity

Operator
Country
US
Launch date
2025-12-10
Launch site
AFWTR
Launch vehicle
Mass (kg)
RCS (m²)

Purposes: comms

External: N2YO · Heavens-Above · Gunter

§ Orbital elements

Epoch: 2026-09-20T21:01:31.925280Z

Period
96.11 min
Inclination
70.0023°
Eccentricity
0.0002806
Mean motion
14.98325535 rev/d
Perigee alt
570.1 km
Apogee alt
574.0 km
Semi-major
6,950.2 km
B*
-9.9699e-5
RAAN
322.3741°
Arg perigee
267.0277°
Mean anomaly
93.0561°
Rev number
4,412

§ Raw data

STARLINK-361631 67008U 25293F   26263.87606395 -.00001282  00000+0 -99699-4 0  99952 67008  70.0023 322.3741 0002806 267.0277  93.0561 14.98325535 44124

JSON: /api/v1/satellites/67008 · /tle

For live sub-satellite position, see the globe view (requires WebGL).

§ Visibility from observer

Set your observer location to see the next 7 days of passes ≥ 10°. The values pass through the URL so the page stays shareable.

No JS? Fill the form by hand. The geolocation button needs JavaScript.